Regional Weather Roundup
Issued by NWS

Home | Current Version | Previous Version | Text Only | Print | Product List | Glossary On
Versions: 1 2 3 4 5 6 7 8 9 10 11 12 13 14 15 16 17 18 19 20 21 22 23 24 25 26 27 28 29 30 31 32 33 34 35 36 37 38 39 40 41 42 43 44 45 46 47 48 49 50
000
ASUS43 KOAX 261310
RWRNE

WEATHER ROUNDUP FOR NEBRASKA
NATIONAL WEATHER SERVICE OMAHA NE
700 AM CST MON JAN 26 2015

NOTES: SATELLITE DATA IS BEING USED TO AUGMENT CLOUD COVER ABOVE
       12000 FEET.
       "FAIR" INDICATES FEW OR NO CLOUDS BELOW 12,000 FEET WITH NO
       SIGNIFICANT WEATHER AND/OR OBSTRUCTIONS TO VISIBILITY.

  * THESE STATIONS DO NOT REPORT WEATHER SUCH AS RAIN...SNOW OR FOG.

NEZ001>004-019>022-054>056-261400-
NEBRASKA PANHANDLE

CITY           SKY/WX    TMP DP  RH WIND       PRES   REMARKS
SCOTTSBLUFF    CLEAR     37  30  75 N9        30.12S WCI  30
ALLIANCE       CLEAR     35  30  82 W13       30.07S WCI  26
CHADRON        CLEAR     43  30  60 W14       30.07S
KIMBALL        CLEAR     42  29  59 W16       30.13S
SIDNEY         CLEAR     40  28  62 W13       30.13S WCI  32
$$

NEZ057>060-069>072-079>082-261400-
SOUTHWEST NEBRASKA

CITY           SKY/WX    TMP DP  RH WIND       PRES   REMARKS
NORTH PLATTE   CLEAR     32  29  88 W10       30.03R WCI  24
IMPERIAL       CLEAR     40  29  64 W13       30.09R WCI  32
LEXINGTON      CLEAR     36  31  84 NW14      29.99S WCI  27
MCCOOK         CLEAR     40  31  70 W14       30.04R WCI  32
OGALLALA       CLEAR     42  32  67 NW9       30.07S
$$

NEZ005>010-023>029-035>040-094-261400-
NORTH CENTRAL NEBRASKA

CITY           SKY/WX    TMP DP  RH WIND       PRES   REMARKS
VALENTINE      CLEAR     34  30  85 W7        29.98R WCI  28
AINSWORTH      CLEAR     38  32  77 W9        29.96R WCI  32
BROKEN BOW     CLEAR     43  32  65 NW21      29.95R
O`NEILL        CLEAR     43  35  72 NW17      29.89R
ORD            CLEAR     42  32  67 NW12      29.91S
THEDFORD       CLEAR     40  32  73 W9        30.00R WCI  34
$$

NEZ041-046>049-061>064-073>077-083>087-261400-
SOUTH CENTRAL NEBRASKA

CITY           SKY/WX    TMP DP  RH WIND       PRES   REMARKS
GRAND ISLAND   CLEAR     34  28  79 W13       29.93R WCI  25
AURORA         CLEAR     34  30  85 W9        29.91R WCI  26
HASTINGS       CLEAR     36  28  73 W15       29.93R WCI  27
HEBRON         CLEAR     31  26  80 W7        29.94S WCI  24
HOLDREGE       CLEAR     40  31  69 NW10      29.97S WCI  34
KEARNEY *      CLEAR     39  30  70 W10       29.95S WCI  32
YORK           CLEAR     30  27  86 W9        29.91S WCI  22
$$

NEZ011>018-030>034-042>045-261400-
NORTHEAST NEBRASKA

CITY           SKY/WX    TMP DP  RH WIND       PRES   REMARKS
NORFOLK        CLEAR     37  31  78 W15       29.84S WCI  28
ALBION         FAIR      30  26  86 CALM      29.88S
BLAIR          CLEAR     33  28  84 SW13      29.86F WCI  23
COLUMBUS *     CLEAR     32  25  74 W9        29.89S WCI  24
FREMONT        CLEAR     33  28  83 SW6       29.87S WCI  27
TEKAMAH        CLEAR     31  27  85 S7        29.86F WCI  24
WAYNE          CLEAR     31  28  90 W3        29.85R
$$

NEZ050>053-065>068-078-088>093-261400-
SOUTHEAST NEBRASKA

CITY           SKY/WX    TMP DP  RH WIND       PRES   REMARKS
LINCOLN        CLEAR     34  28  79 SW5       29.92F WCI  30
OMAHA EPPLEY   PTCLDY    28  26  92 S8        29.89F WCI  20
BEATRICE       CLEAR     30  28  90 S6        29.93F WCI  24
FALLS CITY     CLEAR     24  22  91 SE3       29.96F
NEBRASKA CITY  CLEAR     31  29  93 SW14      29.90F WCI  21
PLATTSMOUTH    CLEAR     27  25  91 S9        29.89F WCI  18
$$

NEZ044-045-051>053-067-261400-
OMAHA AREA

CITY           SKY/WX    TMP DP  RH WIND       PRES   REMARKS
OMAHA EPPLEY   PTCLDY    28  26  92 S8        29.89F WCI  20
BLAIR          CLEAR     33  28  84 SW13      29.86F WCI  23
FREMONT        CLEAR     33  28  83 SW6       29.87S WCI  27
MILLARD        CLEAR     30  27  90 CALM      29.90S
OFFUTT AFB     CLEAR     25  23  94 S5        29.89F WCI  19
PLATTSMOUTH    CLEAR     27  25  91 S9        29.89F WCI  18
WAHOO          FAIR      34  28  79 CALM      29.88S
$$


USA.gov is the U.S. government's official web portal to all federal, state and local government web resources and services.